Location: Croissy-Beaubourg
(48.8283°N, 2.6696°E)
Time: 00:38:16
(UTC+00:00)

USA 215 - Pass Details

Date: 27 May 2022
Orbit: 1099 x 1108 km, 123.0° (Epoch: 10 June)

Event Time Altitude Azimuth Distance (km) Brightness Sun altitude
Rises 22:52:29 0° 55° (NE) 3,927 6.4 -18.7°
Reaches altitude 10° 22:55:02 10° 60° (ENE) 2,968 5.7 -18.8°
Maximum altitude 23:01:28 56° 138° (SE) 1,301 3.3 -19.0°
Enters shadow 23:05:47 22° 208° (SSW) 2,221 4.4 -19.2°
